Weather History for Middletown, OH

Change the Weather History Date:

Saturday, March 2, 2013

  Actual Average (KDAY) Record (KDAY)
Temperature  
Mean Temperature 28 °F 35 °F  
Max Temperature 30 °F 44 °F 73 °F (1992)
Min Temperature 27 °F 27 °F -7 °F (1980)
Degree Days  
Heating Degree Days 36 30  
Month to date heating degree days 60  
Since 1 July heating degree days 4335  
Cooling Degree Days 0 0  
Month to date cooling degree days 0  
Year to date cooling degree days 0  
Moisture  
Dew Point 23 °F    
Average Humidity 81    
Maximum Humidity 90    
Minimum Humidity 76    
Precipitation  
Precipitation 0.00 in 0.08 in 1.01 in (1945)
Month to date precipitation 0.17  
Year to date precipitation 5.12  
Snow  
Snow 0.00 in 0.10 in 2.50 in (1898)
Month to date snowfall 0.3  
Since 1 July snowfall 19.6  
Snow Depth -    
Sea Level Pressure  
Sea Level Pressure 30.07 in    
Wind  
Wind Speed 6 mph (North)    
Max Wind Speed 12 mph    
Max Gust Speed -    
Visibility 9 miles    
Events Snow    
T = Trace of Precipitation, MM = Missing Value Source: NWS Daily Summary

Daily Weather History Graph

Daily Weather History Graph

Search for Another Location

Airport:

Trip Planner

Search our weather history database for the weather conditions in past years. The results will help you decide how hot, cold, wet, or windy it might be!

Date:

Astronomy

Mar. 02, 2013 Rise Set
Actual Time 7:08 AM EST 6:31 PM EST
Civil Twilight 6:41 AM EST 6:58 PM EST
Nautical Twilight 6:10 AM EST 7:29 PM EST
Astronomical Twilight 5:39 AM EST 8:00 PM EST
Moon No Moon Rise 9:37 AM EST (3/2)
Length of Visible Light 12h 16m
Length of Day
11h 22m
Waning Gibbous, 74% of the Moon is Illuminated
Mar 2
Waning Gibbous
Mar 4
Last Quarter
Mar 11
New
Mar 19
First Quarter
Mar 27
Full

Hourly Weather History & Observations

Time (EST) Temp. Windchill Dew Point Humidity Pressure Visibility Wind Dir Wind Speed Gust Speed Precip Events Conditions
12:15 AM 30.2 °F 24.3 °F 24.6 °F 80% 30.06 in 10.0 mi North 5.8 mph - N/A   Overcast
12:35 AM 30.2 °F 23.4 °F 24.8 °F 80% 30.06 in 10.0 mi North 6.9 mph - N/A   Overcast
12:55 AM 30.2 °F 24.3 °F 24.8 °F 80% 30.06 in 10.0 mi North 5.8 mph - N/A   Overcast
1:15 AM 30.2 °F 21.9 °F 25.3 °F 82% 30.06 in 10.0 mi North 9.2 mph - N/A   Overcast
1:35 AM 30.2 °F 23.4 °F 25.0 °F 81% 30.06 in 10.0 mi North 6.9 mph - N/A   Overcast
1:55 AM 29.3 °F 24.3 °F 24.6 °F 83% 30.06 in 10.0 mi North 4.6 mph - N/A   Overcast
2:15 AM 29.1 °F 20.6 °F 24.4 °F 83% 30.06 in 10.0 mi NNE 9.2 mph - N/A   Overcast
2:35 AM 29.1 °F 23.0 °F 23.9 °F 81% 30.06 in 10.0 mi North 5.8 mph - N/A   Overcast
2:55 AM 28.9 °F 19.8 °F 23.5 °F 80% 30.05 in 10.0 mi North 10.4 mph - N/A   Overcast
3:15 AM 28.4 °F 21.2 °F 23.0 °F 80% 30.05 in 10.0 mi NNE 6.9 mph - N/A   Overcast
3:35 AM 28.2 °F 18.3 °F 22.8 °F 80% 30.05 in 10.0 mi NNE 11.5 mph - N/A   Overcast
3:55 AM 27.9 °F 19.1 °F 22.6 °F 81% 30.05 in 10.0 mi NNE 9.2 mph - N/A   Overcast
4:15 AM 27.9 °F 19.1 °F 22.5 °F 80% 30.05 in 10.0 mi North 9.2 mph - N/A   Overcast
4:55 AM 27.9 °F 20.6 °F 23.0 °F 82% 30.04 in 10.0 mi NNE 6.9 mph - N/A   Overcast
5:15 AM 27.9 °F 19.1 °F 23.7 °F 84% 30.05 in 10.0 mi North 9.2 mph - N/A   Overcast
5:35 AM 27.9 °F 20.6 °F 23.9 °F 85% 30.05 in 10.0 mi NNE 6.9 mph - N/A   Overcast
6:15 AM 27.9 °F 19.8 °F 23.0 °F 82% 30.05 in 10.0 mi North 8.1 mph - N/A   Overcast
7:15 AM 27.9 °F 20.6 °F 22.5 °F 80% 30.06 in 10.0 mi North 6.9 mph - N/A   Overcast
7:35 AM 27.9 °F 19.8 °F 23.0 °F 82% 30.06 in 10.0 mi NNE 8.1 mph - N/A   Overcast
7:55 AM 27.9 °F 19.8 °F 23.0 °F 82% 30.07 in 10.0 mi North 8.1 mph - N/A   Overcast
8:15 AM 27.9 °F 20.6 °F 22.8 °F 81% 30.08 in 10.0 mi North 6.9 mph - N/A   Overcast
8:35 AM 27.9 °F 20.6 °F 23.0 °F 82% 30.08 in 7.0 mi North 6.9 mph - N/A Snow Light Snow
8:55 AM 27.9 °F 21.5 °F 23.0 °F 82% 30.08 in 10.0 mi North 5.8 mph - N/A   Overcast
9:15 AM 27.9 °F 19.8 °F 24.3 °F 86% 30.08 in 3.0 mi North 8.1 mph - N/A Snow Light Snow
9:35 AM 27.9 °F 22.6 °F 24.8 °F 88% 30.08 in 4.0 mi North 4.6 mph - N/A Snow Light Snow
9:55 AM 27.9 °F 21.5 °F 24.1 °F 86% 30.08 in 7.0 mi North 5.8 mph - N/A Snow Light Snow
10:15 AM 27.9 °F 19.8 °F 23.7 °F 84% 30.09 in 7.0 mi NNW 8.1 mph - N/A Snow Light Snow
10:35 AM 27.9 °F 20.6 °F 23.9 °F 85% 30.09 in 7.0 mi North 6.9 mph - N/A Snow Light Snow
10:55 AM 27.9 °F 24.0 °F 24.6 °F 88% 30.09 in 5.0 mi North 3.5 mph - N/A Snow Light Snow
11:15 AM 27.9 °F 24.0 °F 25.2 °F 90% 30.09 in 4.0 mi North 3.5 mph - N/A Snow Light Snow
11:35 AM 27.9 °F 19.1 °F 24.8 °F 88% 30.09 in 7.0 mi North 9.2 mph - N/A Snow Light Snow
11:55 AM 27.9 °F 19.1 °F 24.4 °F 87% 30.09 in 7.0 mi NNW 9.2 mph - N/A Snow Light Snow
12:15 PM 27.9 °F 19.8 °F 23.7 °F 84% 30.09 in 10.0 mi North 8.1 mph - N/A   Overcast
12:35 PM 28.4 °F 20.4 °F 23.5 °F 82% 30.08 in 7.0 mi North 8.1 mph - N/A Snow Light Snow
12:55 PM 27.9 °F 19.1 °F 23.4 °F 83% 30.08 in 10.0 mi North 9.2 mph - N/A Snow Light Snow
1:15 PM 27.9 °F 19.1 °F 23.2 °F 83% 30.07 in 10.0 mi North 9.2 mph - N/A   Overcast
1:35 PM 27.9 °F 19.1 °F 23.5 °F 84% 30.07 in 10.0 mi North 9.2 mph - N/A Snow Light Snow
1:55 PM 27.9 °F 19.1 °F 22.8 °F 81% 30.06 in 10.0 mi North 9.2 mph - N/A Snow Light Snow
2:15 PM 27.9 °F 19.1 °F 22.1 °F 79% 30.06 in 10.0 mi North 9.2 mph - N/A   Overcast
2:35 PM 28.4 °F 20.4 °F 22.5 °F 78% 30.06 in 10.0 mi NW 8.1 mph - N/A   Overcast
2:55 PM 28.4 °F 19.7 °F 21.7 °F 76% 30.06 in 10.0 mi NW 9.2 mph - N/A   Overcast
3:15 PM 28.4 °F 23.3 °F 21.7 °F 76% 30.06 in 10.0 mi NNW 4.6 mph - N/A   Overcast
3:35 PM 28.6 °F 22.4 °F 21.9 °F 76% 30.06 in 10.0 mi NNW 5.8 mph - N/A   Overcast
3:55 PM 28.0 °F 20.0 °F 22.1 °F 78% 30.06 in 10.0 mi NW 8.1 mph - N/A   Overcast
4:15 PM 28.4 °F 24.6 °F 22.1 °F 77% 30.06 in 10.0 mi North 3.5 mph - N/A   Overcast
4:35 PM 29.1 °F 22.1 °F 22.3 °F 76% 30.07 in 10.0 mi North 6.9 mph - N/A   Overcast
4:55 PM 28.9 °F 21.9 °F 22.6 °F 77% 30.07 in 10.0 mi NW 6.9 mph - N/A   Overcast
5:15 PM 28.8 °F 22.6 °F 23.0 °F 79% 30.07 in 10.0 mi NNW 5.8 mph - N/A   Overcast
5:35 PM 28.4 °F 23.3 °F 22.6 °F 79% 30.07 in 10.0 mi NW 4.6 mph - N/A   Overcast
5:55 PM 28.4 °F 20.4 °F 22.6 °F 79% 30.08 in 10.0 mi NNW 8.1 mph - N/A   Overcast
6:15 PM 28.0 °F 21.7 °F 22.6 °F 80% 30.09 in 10.0 mi NNW 5.8 mph - N/A   Overcast
6:35 PM 28.2 °F 22.0 °F 22.1 °F 78% 30.09 in 10.0 mi NNW 5.8 mph - N/A   Overcast
6:55 PM 28.2 °F 24.4 °F 21.6 °F 76% 30.09 in 10.0 mi NNW 3.5 mph - N/A   Overcast
7:15 PM 28.2 °F - 21.6 °F 76% 30.09 in 10.0 mi Calm Calm - N/A   Overcast
7:35 PM 28.0 °F - 21.2 °F 76% 30.09 in 10.0 mi Calm Calm - N/A   Overcast
7:55 PM 27.9 °F - 21.6 °F 77% 30.09 in 10.0 mi Calm Calm - N/A   Overcast
8:15 PM 27.9 °F - 21.6 °F 77% 30.09 in 10.0 mi Calm Calm - N/A   Overcast
8:35 PM 27.9 °F - 22.3 °F 80% 30.09 in 10.0 mi Calm Calm - N/A   Overcast
8:55 PM 27.9 °F - 22.5 °F 80% 30.09 in 10.0 mi Calm Calm - N/A   Overcast
9:15 PM 27.9 °F - 22.6 °F 81% 30.10 in 10.0 mi Calm Calm - N/A   Overcast
9:35 PM 27.9 °F - 22.1 °F 79% 30.09 in 10.0 mi Calm Calm - N/A   Overcast
9:55 PM 27.9 °F - 22.1 °F 79% 30.10 in 10.0 mi Calm Calm - N/A   Overcast
10:15 PM 27.9 °F - 23.4 °F 83% 30.09 in 10.0 mi Calm Calm - N/A   Overcast
10:35 PM 27.9 °F - 23.4 °F 83% 30.09 in 10.0 mi Calm Calm - N/A   Overcast
10:55 PM 27.9 °F - 23.7 °F 84% 30.09 in 10.0 mi Calm Calm - N/A   Overcast
11:15 PM 27.9 °F - 23.5 °F 84% 30.08 in 10.0 mi Calm Calm - N/A   Overcast
11:35 PM 27.9 °F - 23.9 °F 85% 30.08 in 10.0 mi Calm Calm - N/A   Overcast
11:55 PM 27.9 °F - 24.4 °F 87% 30.08 in 10.0 mi Calm Calm - N/A   Overcast